Location: Bucquoy
(50.1391°N, 2.7097°E)
Time: 03:59:58
(UTC+00:00)

SeaSat 1 - Pass Details

Date: 06 May 2021
Orbit: 745 x 746 km, 108.0° (Epoch: 22 June)

Event Time Altitude Azimuth Distance (km) Brightness Sun altitude
Rises 23:59:52 0° 29° (NNE) 3,202 6.8 -23.2°
Reaches altitude 10° 00:02:08 10° 29° (NNE) 2,274 5.8 -23.2°
Maximum altitude 00:07:06 86° 302° (WNW) 756 2.4 -23.2°
Enters shadow 00:08:05 58° 219° (SW) 869 2.4 -23.1°
